User: anonymous   Login
Location: Caltech
(34.1382°N, 118.1253°W)
Time: 13:49:22
(UTC-07:00)
Language:

AO-27 - Orbit

View from above orbital plane
View from above orbital plane
View from above satellite
View from above satellite

Ground track
Ground track

The orbit data is extracted from the following two-line orbital elements,

1 22825U 93061C   16145.85432982  .00000021  00000-0  25827-4 0  9997
2 22825  98.7575 101.9591 0009055  32.7739 327.4003 14.29955519181906
Epoch (UTC): 24 May 2016 20:30:14
Eccentricity: 0.0009055
inclination: 98.7575°
perigee height: 785 km
apogee height: 798 km
right ascension of ascending node: 101.9591°
argument of perigee: 32.7739°
revolutions per day: 14.29955519
mean anomaly at epoch: 327.4003°
orbit number at epoch: 18190

The dashed part of the orbit path shows where the satellite is in the earth's shadow,  

DLR